Regional Weather Roundup
Issued by NWS Northern Indiana

Home | Current Version | Previous Version | Text Only | Print | Product List | Glossary Off
Versions: 1 2 3 4 5 6 7 8 9 10 11 12 13 14 15 16 17 18 19 20 21 22 23 24 25 26 27 28 29 30 31 32 33 34 35 36 37 38 39 40 41 42 43 44 45 46 47 48 49 50

000
ASUS43 KIWX 050400
RWRIWX

KIWX WEATHER ROUNDUP
NATIONAL WEATHER SERVICE NORTHERN INDIANA
1100 PM EST WED MAR 04 2015

NOTE: "FAIR" INDICATES FEW OR NO CLOUDS BELOW 12,000 FEET WITH NO
SIGNIFICANT WEATHER AND/OR OBSTRUCTIONS TO VISIBILITY.

* THESE STATIONS ARE NOT UNDER NWS QUALITY CONTROL. THEY ALSO MAY NOT
  REPORT WEATHER SUCH AS PRECIPITATION OR FOG.

INZ001>027-050500-
NORTHERN INDIANA

CITY           SKY/WX    TMP DP  RH WIND       PRES   REMARKS
GARY*          MOCLDY    19   0  44 W9        30.34R WCI   7
KNOX*            N/A     19  -6  32 NW7       30.29R WCI  10
SOUTH BEND     CLOUDY    19   5  54 NW8       30.28R WCI   9
GOSHEN         CLOUDY    18   6  59 NW8       30.26R WCI   8
MONTICELLO*    CLOUDY    17  10  73 NW14      30.29R WCI   3
WARSAW*        CLOUDY    19   9  63 NW7       30.27R WCI  10
ANGOLA*        CLEAR     16   5  62 NW8       30.22R WCI   5
FORT WAYNE     CLOUDY    19   6  57 NW8       30.27R WCI   9
PERU/GRISSOM   CLOUDY    19   6  55 N9        30.26R WCI   8

$$
INZ028>050-050500-
CENTRAL INDIANA

CITY           SKY/WX    TMP DP  RH WIND       PRES   REMARKS
LAFAYETTE      CLOUDY    17   7  64 NW14G21   30.30S WCI   3
KOKOMO*          N/A    N/A N/A N/A MISG        N/A
MUNCIE*        CLOUDY    19   9  65 N14       30.26R WCI   6
INDIANAPOLIS   CLOUDY    19  10  68 NW12      30.27R WCI   7

$$
MIZ043>046-050>051-056>058-064>065-071>073-077>080-050500-
SOUTHWEST LOWER MICHIGAN

CITY           SKY/WX    TMP DP  RH WIND       PRES   REMARKS
BATTLE CREEK   CLOUDY    15   1  53 NW6       30.25R WCI   6
BENTON HARBOR  MOCLDY    17   3  54 VRB7      30.27S WCI   8
COLDWATER*     CLOUDY    16   3  55 NW8       30.22F WCI   5
HILLSDALE*     CLOUDY    15   1  52 N16G22    30.20R WCI   0
HOLLAND        PTCLDY    17   1  49 NW10      30.28S WCI   5
GRAND RAPIDS   PTCLDY    12  -2  53 NW9       30.25S WCI   0
KALAMAZOO      CLOUDY    16   1  51 NW14      30.25R WCI   2
STURGIS*       CLOUDY    16   3  57 NW7       30.23F WCI   6
THREE RIVERS*  FAIR      17   5  59 NW6       30.25F WCI   8

$$
OHZ001>008-015>018-024>025-050500-
NORTHWEST OHIO

CITY           SKY/WX    TMP DP  RH WIND       PRES   REMARKS
DEFIANCE       MOCLDY    19   4  51 NW13      30.27R WCI   6
FINDLAY        CLOUDY    20   3  48 NW21G30   30.23R WCI   4
TOLEDO EXPRESS MOCLDY    18   1  47 NW18G26   30.24R WCI   2
TOLEDO METCALF CLOUDY    19   4  51 NW17      30.25R WCI   4
LIMA           CLOUDY    20   8  60 NW12      30.22R WCI   8

$$
AND FOR LAKE MICHIGAN COASTAL AND OPEN LAKE BUOY OBSERVATIONS

STATION/POSITION TEMP    WIND        PRES    VSBY  WAVE
                 AIR SEA DIR/SP/G                  HT/PER
                 (F)     (DEG/KT/KT) (MB)    (MI)  (FT/S)
CALUMET HARBOR    17     270/  6/  9 1024.7S
MICHIGAN CITY     18     270/ 11/ 14   N/A
SAINT JOSEPH      20     300/ 11/ 17 1025.4R

$$
&&



USA.gov is the U.S. government's official web portal to all federal, state and local government web resources and services.